Location: Bamazo
(6.7448°N, 10.8189°W)
Time: 00:51:00
(UTC+00:00)

MOS 1 Rocket - Pass Details

Date: 18 September 2020
Orbit: 614 x 831 km, 97.4° (Epoch: 21 October)

Event Time Altitude Azimuth Distance (km) Brightness Sun altitude
Rises 19:09:01 0° 23° (NNE) 2,881 6.3 -7.7°
Reaches altitude 10° 19:11:18 10° 31° (NNE) 1,968 5.4 -8.3°
Maximum altitude 19:15:18 40° 101° (E) 904 3.4 -9.3°
Drops below altitude 10° 19:19:19 10° 171° (S) 1,980 5.5 -10.3°
Sets 19:21:37 0° 178° (S) 2,901 6.5 -10.9°
